Location: Auckland
(36.8670°S, 174.7670°E)
Time: 16:33:26
(UTC+12:00)

Tiros 1 despin weight - Pass Details

Date: 25 July 2019
Orbit: 594 x 642 km, 48.2° (Epoch: 20 August)

Event Time Altitude Azimuth Distance (km) Brightness Sun altitude
Rises 03:05:43 0° 234° (SW) 2,862 - -51.6°
Reaches altitude 10° 03:08:22 10° 220° (SW) 1,961 - -51.1°
Maximum altitude 03:12:04 24° 164° (SSE) 1,260 - -50.4°
Drops below altitude 10° 03:15:48 10° 109° (ESE) 1,974 - -49.7°
Sets 03:18:29 0° 95° (E) 2,885 - -49.1°
